Location: Olda
(45.8833°N, 9.5500°E)
Time: 13:42:57
(UTC+00:00)

Cosmos 2278 Rocket - Pass Details

Date: 03 March 2021
Orbit: 841 x 845 km, 71.0° (Epoch: 15 April)

Event Time Altitude Azimuth Distance (km) Brightness Sun altitude
Rises 18:40:21 0° 340° (NNW) 3,415 5.7 -16.3°
Reaches altitude 10° 18:43:22 10° 355° (N) 2,476 4.8 -16.8°
Maximum altitude 18:47:48 23° 47° (NE) 1,734 3.5 -17.5°
Enters shadow 18:48:45 22° 61° (ENE) 1,774 3.4 -17.7°
